TimeCST,TemperatureF,Dew PointF,Humidity,Sea Level PressureIn,VisibilityMPH,Wind Direction,Wind SpeedMPH,Gust SpeedMPH,PrecipitationIn,Events,Conditions,WindDirDegrees,DateUTC
12:54 AM,23.0,15.1,72,30.04,10.0,West,4.6,-,N/A,,Overcast,270,2012-11-26 06:54:00
1:54 AM,23.0,17.1,78,30.06,10.0,West,4.6,-,0.00,,Overcast,270,2012-11-26 07:54:00
2:54 AM,23.0,17.1,78,30.08,10.0,West,8.1,-,N/A,,Overcast,280,2012-11-26 08:54:00
3:54 AM,23.0,18.0,81,30.08,5.0,NW,6.9,-,0.00,Snow,Light Snow,320,2012-11-26 09:54:00
4:54 AM,21.9,16.0,78,30.11,10.0,NW,8.1,-,0.00,,Overcast,320,2012-11-26 10:54:00
5:46 AM,21.2,15.8,80,30.07,6.0,NW,5.8,-,0.00,Snow,Light Snow,320,2012-11-26 11:46:00
5:54 AM,21.0,16.0,81,30.14,7.0,NW,4.6,-,0.00,Snow,Light Snow,320,2012-11-26 11:54:00
6:13 AM,21.2,17.6,86,30.08,1.8,NW,4.6,-,0.00,Snow,Light Snow,310,2012-11-26 12:13:00
6:22 AM,21.2,17.6,86,30.09,3.0,NW,3.5,-,0.00,Snow,Light Snow,310,2012-11-26 12:22:00
6:54 AM,19.9,12.0,71,30.16,10.0,NW,17.3,23.0,0.00,,Overcast,310,2012-11-26 12:54:00
7:54 AM,19.9,9.0,62,30.20,10.0,NW,13.8,-,N/A,,Overcast,310,2012-11-26 13:54:00
8:54 AM,19.9,9.0,62,30.22,10.0,NW,9.2,-,N/A,,Overcast,310,2012-11-26 14:54:00
9:54 AM,19.9,10.0,65,30.25,10.0,WNW,10.4,-,0.00,,Overcast,290,2012-11-26 15:54:00
10:44 AM,19.4,10.4,68,30.18,10.0,NW,15.0,-,N/A,,Mostly Cloudy,320,2012-11-26 16:44:00
10:54 AM,21.0,10.0,63,30.24,10.0,NW,12.7,-,N/A,,Mostly Cloudy,320,2012-11-26 16:54:00
11:09 AM,21.2,10.4,63,30.18,10.0,NW,12.7,17.3,0.00,,Mostly Cloudy,310,2012-11-26 17:09:00
11:54 AM,21.9,10.0,60,30.25,10.0,WNW,13.8,-,0.00,,Overcast,300,2012-11-26 17:54:00
12:54 PM,23.0,10.0,58,30.25,10.0,NNW,15.0,24.2,N/A,,Mostly Cloudy,330,2012-11-26 18:54:00
1:54 PM,23.0,10.9,60,30.25,10.0,WNW,10.4,-,N/A,,Mostly Cloudy,300,2012-11-26 19:54:00
2:54 PM,23.0,10.0,58,30.26,10.0,NW,12.7,-,N/A,,Clear,310,2012-11-26 20:54:00
3:54 PM,19.9,9.0,62,30.28,10.0,WNW,10.4,-,N/A,,Clear,300,2012-11-26 21:54:00
4:54 PM,18.0,9.0,68,30.29,10.0,NW,6.9,-,N/A,,Clear,310,2012-11-26 22:54:00
5:54 PM,17.1,9.0,71,30.32,10.0,WNW,6.9,-,N/A,,Scattered Clouds,300,2012-11-26 23:54:00
6:01 PM,17.6,8.6,68,30.25,10.0,WNW,4.6,-,N/A,,Mostly Cloudy,300,2012-11-27 00:01:00
6:54 PM,17.1,9.0,71,30.33,10.0,NW,8.1,-,N/A,,Mostly Cloudy,320,2012-11-27 00:54:00
7:17 PM,17.6,8.6,68,30.26,10.0,NW,8.1,-,N/A,,Partly Cloudy,310,2012-11-27 01:17:00
7:54 PM,16.0,7.0,68,30.34,10.0,WNW,4.6,-,N/A,,Clear,290,2012-11-27 01:54:00
8:54 PM,14.0,7.0,74,30.34,10.0,West,4.6,-,N/A,,Clear,270,2012-11-27 02:54:00
9:54 PM,7.0,3.0,84,30.34,10.0,Calm,Calm,-,N/A,,Clear,0,2012-11-27 03:54:00
10:54 PM,6.1,1.9,83,30.35,10.0,NW,3.5,-,N/A,,Clear,320,2012-11-27 04:54:00
11:54 PM,6.1,3.0,87,30.34,10.0,Calm,Calm,-,N/A,,Scattered Clouds,0,2012-11-27 05:54:00